Location: Izdebno
(52.6670°N, 16.2170°E)
Time: 18:24:48
(UTC+01:00)

Vanguard 3 - Visible Passes

Search period start: 30 January 2023 00:00
Search period end: 09 February 2023 00:00
Orbit: 509 x 3252 km, 33.4° (Epoch: 29 January)

Date Brightness Start Highest point End Pass type
(mag) Time Alt. Az. Time Alt. Az. Time Alt. Az.
30 Jan 10.4 18:47:47 10° S 18:55:56 22° SE 19:00:28 19° ESE visible
30 Jan 10.2 20:55:51 10° SW 21:04:55 34° S 21:04:55 34° S visible
30 Jan 10.9 23:07:01 10° WSW 23:09:22 16° WSW 23:09:22 16° WSW visible
31 Jan 10.6 17:37:14 10° SSE 17:41:10 12° SE 17:45:41 10° ESE visible
31 Jan 10.1 19:41:51 10° SSW 19:51:38 30° SSE 19:53:49 29° SE visible
31 Jan 10.4 21:51:38 10° WSW 21:58:16 29° SW 21:58:16 29° SW visible
01 Feb 10.3 18:28:51 10° S 18:36:19 21° SE 18:42:42 16° ESE visible
01 Feb 10.1 20:36:57 10° SW 20:47:08 35° S 20:47:08 35° S visible
01 Feb 10.8 22:47:59 10° WSW 22:51:35 20° WSW 22:51:35 20° WSW visible
02 Feb 10.5 17:18:15 10° SSE 17:21:38 12° SE 17:25:33 10° ESE visible
02 Feb 10.1 19:23:02 10° SSW 19:31:59 29° SSE 19:35:59 26° SE visible
02 Feb 10.2 21:32:45 10° WSW 21:40:26 32° SSW 21:40:26 32° SSW visible
03 Feb 10.2 18:10:04 10° S 18:16:47 21° SE 18:24:49 12° ESE visible
03 Feb 10.0 20:18:12 10° SW 20:28:07 33° S 20:29:16 33° SSE visible
03 Feb 10.6 22:29:05 10° WSW 22:33:43 22° SW 22:33:43 22° SW visible
04 Feb 10.0 19:04:20 10° SSW 19:12:26 28° SSE 19:18:06 21° SE visible
04 Feb 10.1 21:13:59 10° WSW 21:22:32 32° SSW 21:22:32 32° SSW visible
04 Feb 11.0 23:26:10 10° WSW 23:26:59 12° WSW 23:26:59 12° WSW visible
05 Feb 10.1 17:51:23 10° S 17:57:23 20° SSE 18:05:39 10° ESE visible
05 Feb 10.0 19:59:32 10° SW 20:08:31 31° S 20:11:21 29° SSE visible
05 Feb 10.5 22:10:21 10° WSW 22:15:48 24° SW 22:15:48 24° SW visible
06 Feb 9.9 18:45:44 10° SSW 18:53:01 26° SSE 19:00:11 17° ESE visible
06 Feb 10.1 20:55:20 10° WSW 21:04:37 31° S 21:04:37 31° S visible
06 Feb 10.9 23:07:33 10° WSW 23:09:04 13° WSW 23:09:04 13° WSW visible
07 Feb 10.0 17:32:49 10° S 17:38:05 18° SSE 17:45:16 10° ESE visible
07 Feb 9.9 19:40:58 10° SW 19:49:03 29° S 19:53:27 24° SE visible
07 Feb 10.4 21:51:45 10° WSW 21:57:53 24° SW 21:57:53 24° SW visible
08 Feb 9.9 18:27:14 10° SSW 18:33:41 24° SSE 18:42:18 12° ESE visible
08 Feb 10.1 20:36:49 10° WSW 20:45:20 28° S 20:46:44 27° S visible
08 Feb 10.8 22:49:12 10° WSW 22:51:11 14° SW 22:51:11 14° SW visible
